Location: Firdgum
(53.2488°N, 5.5615°E)
Time: 13:54:32
(UTC+00:00)

Meteor 1-20 Rocket - Pass Details

Date: 08 December 2019
Orbit: 819 x 892 km, 81.2° (Epoch: 22 January)

Event Time Altitude Azimuth Distance (km) Brightness Sun altitude
Rises 05:10:41 0° 187° (S) 3,487 7.5 -20.7°
Reaches altitude 10° 05:13:07 10° 186° (S) 2,555 6.7 -20.4°
Maximum altitude 05:18:57 80° 101° (E) 913 4.4 -19.5°
Drops below altitude 10° 05:24:49 10° 15° (NNE) 2,567 6.7 -18.7°
Sets 05:27:17 0° 15° (NNE) 3,505 7.4 -18.3°
